[[{"header":{"parameterUnit":"m.s-1","parameterCategory":1,"la1":30.2991,"la2":30.254,"lo1":-89.0895,"lo2":-89.0444,"dy":0.0017,"dx":0.0017,"nx":28,"ny":28,"refTime":"2025-01-01T09:00:00:Z","depth":0,"parameterNumber":2,"parameterNumberName":"U-component_of_WINDS"},"data":[0,0,0,0,0,0,0,0,0,0,0,0,0,0,0,0,0,0,0,0,0,0,0,0,0,0,0,0,0,0,0,0,0,0,0,0,0,0,0,0,0,0,0,0,0,0,0,0,0,0,0,0,0,0,0,0,0,0,-1.3479,-1.3479,0,-1.3538,-1.3539,-1.354,-1.3458,-1.3455,-1.3452,-1.345,-1.3515,-1.3519,-1.3523,0,0,0,0,0,0,0,0,0,0,0,0,0,-1.3298,-1.3301,-1.3479,-1.3479,-1.348,-1.3538,-1.3539,-1.354,-1.3459,-1.3455,-1.3452,-1.3448,-1.3513,-1.3518,-1.3524,0,0,0,0,0,0,0,0,0,0,0,0,0,-1.3369,-1.3303,-1.3479,-1.3447,-1.3444,-1.3538,-1.3539,-1.354,-1.3459,-1.3455,-1.3451,-1.3447,-1.3511,-1.3518,-1.3525,-1.3654,0,0,-1.3545,-1.3548,0,0,0,0,0,0,0,0,-1.3365,-1.3376,-1.3451,-1.3449,-1.3447,-1.3486,-1.3499,-1.3578,-1.3461,-1.3454,-1.3449,-1.3444,-1.3509,-1.3516,-1.3537,-1.3657,-1.366,-1.3546,-1.355,-1.3553,-1.3554,0,0,0,0,0,0,0,-1.336,-1.3373,-1.3502,-1.3452,-1.3449,-1.343,-1.3435,-1.3514,-1.3506,-1.3454,-1.3448,-1.3456,-1.3507,-1.353,-1.3538,-1.3661,-1.3545,-1.3551,-1.3555,-1.3558,-1.389,-1.3895,0,0,0,0,0,0,-1.3358,-1.3369,-1.35,-1.3504,-1.3394,-1.3437,-1.3443,-1.3478,-1.3504,-1.3504,-1.346,-1.3452,-1.3521,-1.353,-1.354,-1.3693,-1.3552,-1.3559,-1.3563,-1.3885,-1.3891,-1.3896,0,0,0,0,0,0,-1.3355,-1.3371,-1.3498,-1.3435,-1.345,-1.3445,-1.3485,-1.3482,-1.3505,-1.3509,-1.3507,-1.3485,-1.3518,-1.353,-1.3626,-1.3694,-1.3562,-1.3568,-1.388,-1.3887,-1.3894,-1.4002,0,0,0,0,0,0,-1.335,-1.337,-1.3419,-1.3437,-1.3453,-1.3583,-1.3489,-1.3486,-1.3516,-1.3506,-1.3532,-1.3532,-1.3515,-1.3616,-1.3632,-1.3701,-1.3573,-1.3873,-1.3883,-1.3891,-1.3992,-1.4012,-1.4028,0,0,0,0,0,-1.3344,-1.3448,-1.3422,-1.3438,-1.3514,-1.3587,-1.3597,-1.3574,-1.3522,-1.3571,-1.3573,-1.3531,-1.3684,-1.3627,-1.3644,-1.3716,-1.3869,-1.388,-1.3891,-1.3984,-1.4008,-1.4028,0,0,0,0,0,0,-1.344,-1.3449,-1.3421,-1.3533,-1.356,-1.3573,-1.3635,-1.3601,-1.3644,-1.3633,-1.3605,-1.3611,-1.3714,-1.3724,-1.366,-1.3842,-1.3768,-1.3783,-1.3833,-1.3855,-1.3873,-1.387,-1.3579,0,0,0,0,0,-1.3473,-1.3531,-1.3537,-1.3635,-1.365,-1.364,-1.3671,-1.3651,-1.3678,-1.369,-1.3699,-1.3728,-1.3782,-1.3819,-1.3869,-1.3992,-1.3997,-1.405,-1.4068,-1.4083,-1.4097,-1.4163,-1.4187,-1.3932,-1.3932,-1.3931,0,0,-1.3545,-1.3557,-1.3596,-1.3655,-1.3673,-1.3735,-1.365,-1.3719,-1.3764,-1.3701,-1.3792,-1.3799,-1.3829,-1.394,-1.3988,-1.3951,-1.4168,-1.4097,-1.4109,-1.4115,-1.4177,-1.4201,-1.4223,-1.3939,-1.3938,-1.3937,0,0,-1.3706,-1.3721,-1.3805,-1.3824,-1.3852,-1.3845,-1.3865,-1.3883,-1.3886,-1.3976,-1.3929,-1.3983,-1.4077,-1.4101,-1.4125,-1.4294,-1.4257,-1.4311,-1.4408,-1.4472,-1.4493,-1.451,-1.4572,-1.4594,-1.4324,-1.4325,-1.4325,0,-1.3792,-1.3881,-1.3853,-1.3924,-1.3952,-1.3895,-1.3981,-1.4001,-1.4045,-1.4066,-1.4023,-1.414,-1.4156,-1.4271,-1.4312,-1.4333,-1.4356,-1.4309,-1.4492,-1.4509,-1.4526,-1.4584,-1.4607,-1.4331,-1.433,-1.433,-1.4329,0,-1.3986,-1.4049,-1.4113,-1.4155,-1.419,-1.4269,-1.4253,-1.4292,-1.4268,-1.4266,-1.4359,-1.4375,-1.4428,-1.4453,-1.4432,-1.4566,-1.4542,-1.4496,-1.4421,-1.4557,-1.4611,-1.4633,-1.4341,-1.4338,-1.4336,-1.4335,0,0,-1.4212,-1.4236,-1.426,-1.4279,-1.4305,-1.4353,-1.4429,-1.4479,-1.4513,-1.4545,-1.4609,-1.4689,-1.4646,-1.4673,-1.4654,-1.4711,-1.4845,-1.4657,-1.4658,-1.4693,-1.4994,-1.503,-1.5057,-1.4819,-1.4823,-1.4826,-1.4992,0,-1.4374,-1.4504,-1.448,-1.4607,-1.4666,-1.4611,-1.4677,-1.4701,-1.47,-1.475,-1.4749,-1.4806,-1.4745,-1.4761,-1.4815,-1.4817,-1.4905,-1.4804,-1.488,-1.4883,-1.4876,-1.5085,-1.5123,-1.5279,-1.5013,-1.5017,-1.5019,0,-1.4582,-1.462,-1.4753,-1.4769,-1.4793,-1.4852,-1.4896,-1.4944,-1.497,-1.4965,-1.4995,-1.4964,-1.5041,-1.4962,-1.5068,-1.5,-1.5029,-1.5034,-1.504,-1.5048,-1.4961,-1.5101,-1.5328,-1.5352,-1.5052,-1.505,-1.5047,0,-1.4736,-1.482,-1.491,-1.4927,-1.4948,-1.4992,-1.5003,-1.5024,-1.5055,-1.5093,-1.5114,-1.5161,-1.5188,-1.5225,-1.5208,-1.5152,-1.5317,-1.5237,-1.5317,-1.5318,-1.5356,-1.5355,-1.5594,-1.5372,-1.5371,-1.5371,-1.537,0,-1.4921,-1.5005,-1.4979,-1.5035,-1.5128,-1.5099,-1.5191,-1.5196,-1.5215,-1.5271,-1.5226,-1.5281,-1.5254,-1.5307,-1.5294,-1.5384,-1.5395,-1.5395,-1.5391,-1.54,-1.5401,-1.5421,-1.541,-1.5377,-1.5376,-1.5375,-1.5373,0,-1.511,-1.5096,-1.5191,-1.5202,-1.5207,-1.5274,-1.5284,-1.5337,-1.5331,-1.5404,-1.5419,-1.5411,-1.5471,-1.5457,-1.5522,-1.5513,-1.5627,-1.5608,-1.5618,-1.5614,-1.5695,-1.5689,-1.5958,-1.5992,-1.5746,-1.5748,-1.575,0,-1.523,-1.5293,-1.531,-1.5344,-1.5358,-1.5414,-1.5445,-1.5418,-1.5453,-1.5487,-1.5536,-1.559,-1.5633,-1.5731,-1.5732,-1.5781,-1.5765,-1.5855,-1.5772,-1.578,-1.5768,-1.5766,-1.5772,-1.5873,-1.5876,-1.5878,-1.588,0,-1.5446,-1.5435,-1.5482,-1.5526,-1.5564,-1.5598,-1.5628,-1.5658,-1.5634,-1.5676,-1.5735,-1.5768,-1.5833,-1.5889,-1.5935,-1.5947,-1.5911,-1.5906,-1.5927,-1.5938,-1.5942,-1.5943,-1.5665,-1.59,-1.5898,-1.5897,-1.5896,-1.5895,-1.5605,-1.5658,-1.5679,-1.5732,-1.5751,-1.578,-1.583,-1.583,-1.5878,-1.5929,-1.591,-1.5979,-1.6002,-1.6059,-1.6076,-1.613,-1.6096,-1.6127,-1.6135,-1.6143,-1.6154,-1.5932,-1.6138,-1.6137,-1.6137,-1.6136,-1.6136,0,-1.582,-1.583,-1.5879,-1.5921,-1.5963,-1.5922,-1.5953,-1.5991,-1.6051,-1.6076,-1.6118,-1.6186,-1.624,-1.6244,-1.6294,-1.6336,-1.6321,-1.6351,-1.6348,-1.6352,-1.6181,-1.6158,-1.6362,-1.6362,-1.6362,-1.6362,-1.6362,-1.6362,-1.5937,-1.6025,-1.6017,-1.6115,-1.6124,-1.619,-1.6211,-1.6237,-1.6256,-1.6334,-1.6378,-1.6379,-1.6396,-1.6447,-1.6494,-1.6494,-1.6515,-1.6552,-1.6546,-1.6386,-1.6364,-1.6343,-1.6321,-1.6556,-1.6557,-1.6713,-1.6714,-1.6715]},{"header":{"parameterUnit":"m.s-1","parameterCategory":1,"la1":30.2991,"la2":30.254,"lo1":-89.0895,"lo2":-89.0444,"dy":0.0017,"dx":0.0017,"nx":28,"ny":28,"refTime":"2025-01-01T09:00:00:Z","depth":0,"parameterNumber":3,"parameterNumberName":"V-component_of_WINDS"},"data":[0,0,0,0,0,0,0,0,0,0,0,0,0,0,0,0,0,0,0,0,0,0,0,0,0,0,0,0,0,0,0,0,0,0,0,0,0,0,0,0,0,0,0,0,0,0,0,0,0,0,0,0,0,0,0,0,0,0,-3.2891,-3.2892,0,-3.2982,-3.2983,-3.2984,-3.2941,-3.2939,-3.2936,-3.2934,-3.3025,-3.303,-3.3034,0,0,0,0,0,0,0,0,0,0,0,0,0,-3.2677,-3.2681,-3.2891,-3.2892,-3.2893,-3.2982,-3.2983,-3.2984,-3.2941,-3.2938,-3.2936,-3.2933,-3.3024,-3.3029,-3.3035,0,0,0,0,0,0,0,0,0,0,0,0,0,-3.2769,-3.2682,-3.2891,-3.2882,-3.2883,-3.2982,-3.2983,-3.2985,-3.2942,-3.2938,-3.2935,-3.2932,-3.3022,-3.3029,-3.3035,-3.3147,0,0,-3.3056,-3.3059,0,0,0,0,0,0,0,0,-3.2764,-3.2777,-3.2882,-3.2883,-3.2883,-3.2947,-3.2941,-3.3039,-3.2943,-3.2919,-3.2934,-3.293,-3.3002,-3.301,-3.3035,-3.3152,-3.3156,-3.3057,-3.3061,-3.3064,-3.3066,0,0,0,0,0,0,0,-3.2757,-3.2773,-3.2927,-3.2884,-3.2885,-3.2873,-3.2883,-3.296,-3.2979,-3.2921,-3.2918,-3.293,-3.3001,-3.3028,-3.3037,-3.3157,-3.3057,-3.3063,-3.3067,-3.307,-3.3369,-3.3373,0,0,0,0,0,0,-3.2752,-3.2768,-3.2924,-3.293,-3.2814,-3.288,-3.289,-3.293,-3.2978,-3.2982,-3.2933,-3.2927,-3.3018,-3.3029,-3.304,-3.3173,-3.3064,-3.3071,-3.3075,-3.3366,-3.337,-3.3374,0,0,0,0,0,0,-3.2747,-3.2766,-3.292,-3.2848,-3.2867,-3.2887,-3.2932,-3.2933,-3.296,-3.2987,-3.299,-3.2957,-3.3016,-3.303,-3.3121,-3.3176,-3.3074,-3.308,-3.3361,-3.3367,-3.3372,-3.3442,0,0,0,0,0,0,-3.2741,-3.2765,-3.2808,-3.2849,-3.2871,-3.3001,-3.2935,-3.2938,-3.2973,-3.2967,-3.301,-3.3014,-3.3014,-3.3111,-3.3128,-3.3184,-3.3085,-3.3356,-3.3364,-3.3371,-3.3435,-3.345,-3.3462,0,0,0,0,0,-3.2734,-3.2824,-3.2811,-3.283,-3.2926,-3.3004,-3.3017,-3.3016,-3.2977,-3.3021,-3.3037,-3.3012,-3.3167,-3.3121,-3.3139,-3.3198,-3.3353,-3.3362,-3.337,-3.3429,-3.3447,-3.3462,0,0,0,0,0,0,-3.2788,-3.2829,-3.2815,-3.2921,-3.296,-3.2997,-3.3052,-3.3035,-3.3085,-3.3077,-3.3073,-3.3083,-3.3178,-3.3197,-3.3144,-3.3308,-3.3254,-3.3267,-3.3293,-3.331,-3.3323,-3.3316,-3.3091,0,0,0,0,0,-3.2812,-3.2874,-3.2906,-3.2996,-3.3017,-3.3031,-3.3065,-3.3061,-3.3101,-3.3117,-3.314,-3.3179,-3.3236,-3.3274,-3.3328,-3.3438,-3.3446,-3.3487,-3.3501,-3.3512,-3.3523,-3.3581,-3.36,-3.3403,-3.3403,-3.3403,0,0,-3.2863,-3.2893,-3.2932,-3.3008,-3.3038,-3.31,-3.3045,-3.3114,-3.316,-3.3127,-3.3215,-3.3233,-3.3276,-3.3377,-3.3422,-3.3396,-3.3579,-3.3523,-3.3531,-3.3536,-3.3592,-3.3611,-3.3627,-3.3409,-3.3408,-3.3407,0,0,-3.2988,-3.3017,-3.3095,-3.3126,-3.3172,-3.3181,-3.3199,-3.324,-3.3251,-3.3339,-3.3315,-3.337,-3.3469,-3.35,-3.3529,-3.3665,-3.3644,-3.3683,-3.3753,-3.3811,-3.3826,-3.384,-3.3888,-3.3905,-3.3694,-3.3694,-3.3694,0,-3.3045,-3.3139,-3.3138,-3.3209,-3.3242,-3.3216,-3.3295,-3.3324,-3.3385,-3.3409,-3.3378,-3.3502,-3.3529,-3.3636,-3.3669,-3.3694,-3.3715,-3.3678,-3.3824,-3.3838,-3.3851,-3.3897,-3.3915,-3.3698,-3.3698,-3.3697,-3.3697,0,-3.3207,-3.3273,-3.3331,-3.3391,-3.3431,-3.3506,-3.3514,-3.3555,-3.3548,-3.356,-3.3649,-3.3681,-3.374,-3.3766,-3.3759,-3.3872,-3.3854,-3.3824,-3.3769,-3.3874,-3.3917,-3.3934,-3.3705,-3.3703,-3.3702,-3.3701,0,0,-3.3368,-3.3427,-3.3448,-3.3474,-3.3523,-3.3573,-3.3646,-3.3705,-3.374,-3.3783,-3.3843,-3.3928,-3.39,-3.3933,-3.3929,-3.398,-3.4085,-3.3944,-3.3944,-3.3968,-3.4211,-3.4233,-3.4253,-3.4071,-3.4075,-3.4077,-3.4207,0,-3.3496,-3.3625,-3.3625,-3.3744,-3.3804,-3.378,-3.3843,-3.3879,-3.3892,-3.3944,-3.3958,-3.4018,-3.3977,-3.3997,-3.4046,-3.4062,-3.4134,-3.4053,-3.4127,-3.4129,-3.4117,-3.4276,-3.43,-3.4421,-3.4224,-3.4227,-3.4229,0,-3.3663,-3.3711,-3.3836,-3.3875,-3.39,-3.3957,-3.4011,-3.4062,-3.4102,-3.4108,-3.4145,-3.4133,-3.4207,-3.415,-3.425,-3.4195,-3.4225,-3.4238,-3.4243,-3.4249,-3.4185,-3.4286,-3.4459,-3.4477,-3.4256,-3.4253,-3.4251,0,-3.3767,-3.3864,-3.3951,-3.3974,-3.4022,-3.4063,-3.4085,-3.4121,-3.4157,-3.4204,-3.4226,-3.4281,-3.4311,-3.4353,-3.4356,-3.4315,-3.4458,-3.4401,-3.4464,-3.4464,-3.4495,-3.4492,-3.4674,-3.4515,-3.4515,-3.4514,-3.4514,0,-3.391,-3.3987,-3.3998,-3.4052,-3.4137,-3.4136,-3.422,-3.4238,-3.4271,-3.4327,-3.4309,-3.4361,-3.4363,-3.4416,-3.4419,-3.4502,-3.4515,-3.4521,-3.4521,-3.4523,-3.4522,-3.4542,-3.4534,-3.4519,-3.4518,-3.4517,-3.4516,0,-3.4041,-3.4052,-3.4145,-3.4183,-3.4194,-3.4255,-3.4287,-3.4338,-3.4349,-3.442,-3.4436,-3.4453,-3.4515,-3.4523,-3.4595,-3.4597,-3.4696,-3.4687,-3.4683,-3.4681,-3.4743,-3.4737,-3.4944,-3.4971,-3.4795,-3.4796,-3.4798,0,-3.4131,-3.419,-3.4234,-3.4271,-3.4295,-3.4354,-3.439,-3.4391,-3.4429,-3.4479,-3.4523,-3.4584,-3.4632,-3.4732,-3.475,-3.4805,-3.4797,-3.4866,-3.4805,-3.4805,-3.4798,-3.4794,-3.48,-3.4878,-3.488,-3.4881,-3.4883,0,-3.429,-3.4292,-3.4346,-3.4401,-3.4445,-3.4488,-3.4529,-3.456,-3.4566,-3.461,-3.4673,-3.4711,-3.4785,-3.4845,-3.4899,-3.492,-3.4902,-3.4902,-3.4919,-3.4921,-3.4916,-3.4919,-3.4715,-3.4897,-3.4895,-3.4894,-3.4893,-3.4893,-3.4403,-3.4454,-3.4493,-3.4553,-3.4584,-3.4622,-3.4671,-3.4689,-3.4742,-3.4803,-3.48,-3.487,-3.4908,-3.4979,-3.5004,-3.5058,-3.5035,-3.506,-3.5066,-3.5072,-3.5078,-3.4908,-3.5068,-3.5067,-3.5067,-3.5066,-3.5066,0,-3.456,-3.4584,-3.4639,-3.4697,-3.4744,-3.4724,-3.4768,-3.4808,-3.487,-3.4907,-3.4955,-3.5028,-3.5086,-3.5109,-3.5165,-3.5204,-3.5197,-3.5219,-3.5216,-3.5221,-3.5096,-3.5075,-3.5223,-3.5223,-3.5223,-3.5223,-3.5223,-3.5223,-3.4648,-3.4733,-3.474,-3.4839,-3.4862,-3.4931,-3.4958,-3.4993,-3.5023,-3.5105,-3.5153,-3.5168,-3.5199,-3.5258,-3.531,-3.5315,-3.5336,-3.5361,-3.5363,-3.5246,-3.523,-3.5215,-3.5195,-3.5366,-3.5366,-3.5483,-3.5484,-3.5485]}]]